Location: Bernay
(48.6766°N, 2.9386°E)
Time: 19:56:56
(UTC+00:00)

BREEZE-M DEB (TANK) - Pass Details

Date: 12 January 2026
Orbit: 317 x 11663 km, 49.7° (Epoch: 17 February)

Event Time Altitude Azimuth Distance (km) Brightness Sun altitude
Rises 16:23:16 0° 222° (SW) 2,760 7.5 -1.9°
Reaches altitude 10° 16:24:44 10° 216° (SW) 2,165 6.5 -2.1°
Maximum altitude 16:29:16 55° 138° (SE) 1,482 4.3 -2.7°
Drops below altitude 10° 16:44:33 10° 67° (ENE) 6,906 7.0 -4.9°
Enters shadow 16:48:17 - 67° (ENE) 8,153 7.3 -5.5°
